Wind_Speed
14 14 14 15 18 20 21 23 25 26 26 23 23 25 27 28 29 35 43 43 39 38 37 37 40 40 35 37 38 36 37 37 33 31 31 32 32 30 28 27 27 27 28 28 28 27 27 26 26 25 25 25 25 25 26 26 27 28 29 28 24 24 29 34 36 34 35 37 34 31 30 26 20 14
13 14 15 17 19 21 22 24 24 24 23 23 25 28 29 28 28 29 35 44 45 42 43 40 39 41 39 37 39 38 38 38 32 30 32 32 32 31 29 29 28 28 29 28 28 27 27 26 26 26 25 25 24 24 25 24 25 26 27 27 25 23 25 32 39 42 40 38 37 36 34 33 28 20
14 15 17 19 20 22 23 23 23 22 22 24 27 30 30 28 30 31 31 41 48 44 45 46 40 39 40 39 39 39 38 35 30 30 32 32 31 30 30 30 29 29 29 29 29 28 28 27 26 26 25 25 24 24 24 24 23 25 27 27 25 23 23 25 34 44 47 44 41 39 38 38 36 29
16 18 20 20 20 21 23 22 21 22 23 26 29 31 31 29 31 31 28 36 49 46 40 43 42 39 40 41 40 38 36 34 31 31 33 32 30 31 32 32 31 31 31 31 30 29 28 27 27 26 25 25 24 24 24 24 23 23 26 28 26 24 23 22 23 31 40 46 47 47 46 45 44 38
18 21 21 20 19 21 22 21 21 22 24 28 31 30 30 30 29 30 29 33 45 46 38 39 43 41 41 41 39 36 35 34 32 31 33 33 33 34 35 35 34 32 30 28 27 27 27 27 26 25 25 25 24 24 24 24 24 22 23 26 26 25 24 23 21 21 27 36 43 52 54 51 49 44
19 20 20 20 20 20 21 20 21 24 26 29 31 28 28 30 30 29 30 31 38 44 42 40 44 43 41 40 38 35 34 34 33 33 35 36 35 34 33 31 29 27 26 25 25 25 26 26 26 25 25 25 25 25 24 24 24 23 23 26 28 27 26 26 24 22 23 27 32 43 51 51 52 49
19 19 20 21 21 20 20 20 21 24 28 29 29 28 28 30 31 30 30 30 32 39 42 42 43 43 39 37 37 36 36 36 36 36 36 34 32 30 28 28 27 26 25 25 25 26 27 27 27 27 26 26 25 25 25 24 24 24 24 28 31 31 30 29 29 26 25 27 27 32 39 43 48 51
19 19 20 21 21 19 19 21 23 26 28 28 27 28 28 29 30 31 29 28 29 35 42 43 42 41 38 36 37 39 38 36 35 33 32 30 30 29 28 28 28 27 26 25 26 26 26 26 27 27 27 26 26 26 25 25 25 25 26 28 32 33 31 29 30 29 27 28 28 29 33 38 44 49
19 19 21 22 19 18 20 22 25 28 28 28 27 27 28 29 29 30 29 28 29 33 39 43 41 38 37 37 40 39 35 33 31 30 30 30 30 29 28 26 25 23 22 22 23 23 24 24 24 26 26 25 25 26 25 25 26 27 27 28 31 34 33 30 29 30 29 30 30 29 32 38 45 48
19 20 21 21 18 18 21 24 27 29 29 28 28 27 28 29 29 29 28 27 28 32 37 41 40 39 40 40 40 37 31 28 29 30 31 30 27 26 25 23 22 21 22 24 26 28 28 27 26 27 26 26 25 25 24 24 25 28 29 28 30 33 34 31 28 29 30 31 32 30 32 37 43 46
19 20 20 20 18 19 22 25 28 30 29 26 26 27 28 29 28 28 27 27 29 33 36 37 38 42 44 40 38 35 30 27 27 27 28 29 26 24 25 26 28 29 30 31 31 31 30 28 28 29 29 29 28 28 28 25 24 27 29 29 29 32 34 33 29 29 30 30 32 32 33 38 42 44
19 19 20 19 19 20 23 27 27 27 25 23 24 26 28 28 27 27 27 28 31 33 35 38 40 42 43 40 37 37 32 28 27 25 25 29 29 28 29 31 32 31 31 32 32 31 29 28 27 27 28 29 29 29 30 30 28 28 30 30 29 31 35 34 31 30 29 30 32 31 30 36 42 44
18 19 20 20 20 21 24 26 25 23 21 21 24 27 27 27 26 26 27 29 32 34 36 39 40 40 42 42 40 39 34 29 28 27 26 29 30 29 31 32 30 28 29 32 34 32 28 27 26 25 26 28 27 27 29 30 30 30 30 31 30 31 35 35 33 31 30 30 32 31 28 31 38 42
18 18 20 21 21 23 26 27 26 25 24 23 24 26 26 26 25 26 28 31 34 35 34 37 39 39 43 44 41 40 39 33 32 31 29 30 31 31 33 35 32 27 26 28 31 31 28 27 28 27 26 26 26 26 28 28 28 29 29 30 30 30 34 36 34 31 30 29 30 30 29 29 33 39
18 20 21 22 22 24 26 27 27 26 25 23 24 25 25 24 23 24 28 31 33 33 33 36 38 38 42 44 42 42 43 40 38 37 35 36 37 36 37 39 36 30 25 26 31 35 34 31 32 31 28 27 26 26 27 27 27 27 28 29 30 30 33 36 36 33 30 29 29 29 29 29 31 35
20 21 22 22 23 25 26 27 26 25 23 23 23 24 24 24 22 22 25 29 30 31 33 35 37 37 40 43 44 43 42 41 42 40 39 40 40 39 39 38 36 32 28 27 32 37 36 31 32 33 30 28 27 27 27 26 25 26 27 28 29 30 32 36 37 34 31 29 29 29 29 29 31 32
21 22 23 23 23 24 25 25 24 23 22 22 23 23 24 23 21 22 24 25 26 30 32 33 35 37 39 42 43 42 39 40 41 41 40 38 37 38 38 37 36 33 30 27 29 35 36 30 30 33 30 28 28 28 27 25 24 24 25 27 28 29 32 35 38 36 31 29 29 28 28 29 32 32
23 24 24 23 22 23 23 22 21 21 22 23 23 23 24 24 23 22 22 22 24 27 29 31 35 38 39 40 41 38 35 36 38 38 37 35 34 36 37 35 35 34 30 27 28 35 37 31 31 34 30 27 28 29 28 27 25 22 22 25 27 29 31 35 38 37 32 29 29 28 28 30 32 34
25 24 22 20 19 21 21 20 19 19 20 21 22 23 26 26 23 22 22 21 23 26 27 30 35 37 37 36 35 33 32 34 35 34 34 33 32 35 37 38 37 36 32 27 27 35 39 33 34 36 30 27 29 29 28 28 26 23 21 23 26 29 31 34 38 38 33 29 29 29 28 30 32 35
22 20 17 16 18 20 19 18 17 16 17 19 21 24 27 26 23 22 22 22 22 24 26 30 33 34 32 30 28 28 27 29 30 30 31 31 32 34 37 39 37 34 31 27 25 32 36 32 32 33 27 24 28 28 28 28 27 24 21 22 25 28 31 34 38 39 34 29 29 30 29 29 31 35
17 15 14 15 17 18 17 16 15 14 15 17 21 26 27 25 25 24 22 21 22 24 27 30 31 30 28 27 25 24 23 22 23 26 28 29 28 29 32 35 35 32 31 28 24 28 32 29 27 27 22 20 24 27 28 29 28 24 21 22 24 26 30 33 37 39 35 29 28 30 30 30 30 33
15 13 13 15 16 17 15 15 14 13 14 17 22 24 24 25 26 26 25 24 24 25 26 28 29 27 26 24 24 24 22 18 16 19 23 23 21 23 26 30 33 32 26 18 15 22 25 22 20 21 19 17 21 25 27 27 26 25 23 23 24 24 27 32 35 38 36 30 27 28 30 30 30 32
13 13 13 13 14 14 14 14 14 12 13 17 20 21 22 24 26 28 28 29 29 30 29 29 28 27 25 23 22 23 21 17 14 15 17 18 18 20 23 24 27 29 17 7 4 13 16 16 18 18 18 17 16 21 25 24 24 26 27 25 24 24 26 30 33 36 35 32 27 27 29 30 31 32
12 12 13 12 12 13 13 13 12 11 12 15 18 19 20 21 24 28 30 30 30 32 31 30 29 27 24 22 21 22 22 18 16 15 14 15 16 18 21 20 22 27 18 4 5 13 14 16 19 18 18 17 13 14 18 21 23 26 27 26 25 24 25 27 31 33 33 31 28 27 28 31 31 33
10 11 11 11 10 11 12 11 10 10 11 13 16 18 18 18 22 28 30 30 29 30 29 27 27 25 24 22 20 21 22 20 17 15 14 13 13 15 18 18 20 25 19 7 7 13 17 19 19 16 17 19 16 13 14 18 23 25 25 25 25 25 25 26 28 30 31 30 29 28 29 32 32 33
9 10 10 9 10 10 10 9 8 10 12 13 16 17 18 20 23 27 28 29 28 26 25 24 23 23 23 22 21 20 21 21 18 17 15 13 11 11 13 15 18 22 17 9 7 14 20 21 20 17 17 18 18 17 14 17 21 21 22 24 24 24 25 26 27 28 29 29 29 30 31 32 33 33
8 9 9 8 9 8 7 7 8 10 12 14 16 18 20 21 23 24 25 24 23 22 21 20 20 20 21 22 21 21 22 23 23 21 18 14 11 9 10 12 16 18 15 10 10 15 20 21 18 16 17 17 18 18 17 20 19 19 23 25 24 23 23 24 25 26 26 27 29 31 32 32 32 32
8 8 8 7 7 7 6 7 9 10 12 14 16 18 19 19 19 20 20 20 19 19 19 19 19 19 20 21 22 22 23 25 27 27 24 18 11 8 8 7 10 10 9 10 10 12 17 17 13 12 16 18 18 16 18 19 18 18 22 25 25 24 24 24 25 24 23 24 27 30 32 33 33 32
8 6 6 6 6 6 6 7 8 9 11 12 13 14 15 15 16 16 16 17 18 18 19 19 19 19 20 20 21 22 22 24 27 28 28 23 13 4 2 3 4 5 6 7 7 7 10 10 9 10 13 17 19 18 18 17 15 15 17 20 23 25 26 27 27 26 23 23 26 30 34 35 35 34
7 5 5 6 5 5 5 5 6 8 9 10 11 12 12 12 13 15 16 18 20 21 21 22 21 21 21 20 20 20 21 23 25 27 29 29 24 16 11 10 11 12 11 8 6 2 2 3 4 4 5 12 20 21 17 15 15 13 12 14 18 22 25 25 25 25 25 24 26 30 32 33 34 33
6 5 5 5 4 3 2 4 6 7 8 8 9 9 9 10 13 16 18 19 21 23 24 24 25 24 23 22 22 22 22 23 24 26 29 31 32 31 26 20 17 15 14 13 12 10 9 6 4 7 11 14 20 22 19 18 19 16 11 11 16 19 20 23 25 25 25 24 25 28 30 31 32 32
6 6 5 4 3 1 2 4 6 7 6 6 6 7 8 10 12 15 17 19 21 23 24 26 27 28 28 27 26 25 25 25 25 26 28 30 32 34 35 32 27 21 17 17 19 21 21 17 13 13 15 18 21 22 22 21 21 18 13 13 15 14 15 20 24 24 24 25 25 26 28 29 30 31
7 7 6 5 4 3 3 3 3 4 4 4 5 7 9 11 13 15 17 20 22 23 25 27 29 30 31 32 31 30 29 28 27 27 28 30 31 33 36 39 37 32 26 22 21 24 26 26 24 21 18 19 22 23 23 21 20 18 15 15 14 12 13 19 23 21 22 25 26 26 28 29 30 31
9 8 8 7 6 5 4 4 3 2 2 4 6 8 10 12 14 16 18 20 22 23 25 27 29 31 32 34 34 35 34 33 31 30 29 30 31 32 34 37 39 39 35 30 25 22 23 25 25 25 22 20 21 22 21 20 18 16 15 15 15 14 13 17 20 20 20 23 24 25 27 28 30 31
10 10 10 9 8 8 7 6 5 4 4 5 7 9 11 12 14 16 18 20 22 23 24 26 28 30 32 34 35 36 37 36 35 34 32 31 31 32 34 35 37 38 37 35 31 26 22 20 20 22 22 20 20 20 19 17 15 14 13 14 14 15 14 14 17 18 19 20 21 23 25 26 28 30
12 12 12 11 10 9 8 7 5 4 5 6 7 8 10 12 14 16 18 19 21 22 24 25 27 29 31 33 35 36 37 37 38 37 36 36 34 33 33 33 35 35 36 36 35 31 27 23 21 21 22 22 22 22 19 15 13 11 10 11 11 12 13 14 15 17 18 18 19 21 23 24 25 26
13 14 13 13 12 10 9 7 5 4 4 5 6 8 9 11 13 15 16 18 20 21 23 24 26 28 29 31 33 35 36 37 38 39 39 39 38 37 35 34 34 34 34 34 34 32 31 29 27 26 26 26 26 24 21 17 14 11 9 9 9 8 10 12 14 16 18 19 20 20 21 22 22 22
15 15 15 14 12 10 8 7 5 3 3 4 6 7 9 10 11 13 15 17 18 20 21 23 25 26 28 30 31 33 35 36 37 39 39 40 40 39 38 37 36 35 33 32 32 32 32 31 30 29 28 27 25 22 21 20 18 14 12 10 8 7 8 9 11 13 16 19 21 22 22 22 21 20
16 16 16 15 13 11 9 7 5 3 3 4 5 6 7 9 10 12 14 16 18 19 20 22 23 25 26 28 30 32 33 35 36 38 39 40 40 40 39 38 37 36 35 34 33 33 32 32 31 29 27 24 22 20 21 22 21 18 14 12 10 9 9 9 9 10 13 16 19 21 22 22 22 22
18 18 17 15 13 11 9 7 5 4 3 4 4 4 6 8 9 11 13 15 17 19 20 21 22 23 25 27 28 30 31 33 35 36 37 38 38 39 38 38 38 37 37 36 35 34 34 32 30 27 24 22 20 19 21 22 20 17 14 13 13 12 11 10 9 8 9 11 15 17 18 18 19 20
19 19 18 16 13 11 9 8 6 4 4 3 3 4 6 7 9 11 13 14 16 18 19 21 22 23 24 25 27 28 29 31 32 34 35 35 36 37 37 38 38 38 38 38 37 35 33 29 25 22 20 19 17 18 22 24 22 19 16 15 15 15 13 11 10 8 7 7 10 13 14 14 15 16
19 20 18 16 14 12 10 8 7 5 4 3 3 3 4 6 8 10 11 13 15 17 18 20 21 23 23 24 25 26 27 29 30 31 33 34 34 35 36 37 38 38 38 38 37 34 30 26 22 20 19 18 18 21 25 27 26 22 18 16 15 15 15 13 11 9 8 7 9 11 12 13 13 13
20 20 19 16 14 13 11 9 7 5 4 3 3 3 3 5 6 8 10 11 13 15 17 19 20 22 23 24 24 25 26 27 28 29 30 32 33 34 35 36 36 36 35 35 33 32 30 28 26 23 22 22 23 24 26 27 25 23 20 17 14 14 15 15 14 12 10 7 7 10 11 12 12 13
20 20 19 17 15 13 11 9 8 6 4 3 2 2 2 3 4 6 8 9 11 13 16 17 19 20 22 23 23 24 25 25 26 27 28 29 30 31 32 33 33 33 33 33 32 32 32 31 30 28 28 27 26 25 26 26 25 23 21 18 15 13 14 14 14 14 12 9 6 5 8 9 10 11
20 20 20 18 16 14 12 10 8 7 5 4 3 2 1 2 3 4 6 8 10 12 14 16 17 18 20 21 22 23 24 24 24 24 25 26 27 28 29 30 31 32 32 32 32 32 32 32 32 31 31 30 28 26 26 26 25 23 20 18 17 16 14 12 12 12 13 12 9 6 5 6 7 9
Wind_Direction
260 259 263 266 271 278 280 279 278 280 282 287 292 293 295 296 297 301 303 302 302 305 305 307 311 314 314 314 317 317 314 313 309 304 301 301 302 301 298 295 291 290 290 289 287 285 285 285 284 283 281 279 279 276 270 262 255 251 245 239 232 224 221 223 225 229 231 232 236 237 237 247 256 243
259 259 263 265 269 275 279 279 279 281 285 289 291 292 294 293 289 290 293 294 296 300 303 305 308 311 313 314 316 317 315 314 307 301 301 300 300 299 295 294 291 290 291 288 286 284 282 281 282 283 282 279 278 275 272 269 261 253 248 242 240 235 229 227 227 230 235 235 237 240 240 245 255 257
259 259 262 263 268 275 280 279 278 281 285 288 292 295 294 292 290 289 286 287 290 295 300 303 304 308 312 316 316 315 315 314 306 301 302 298 296 295 291 291 290 289 289 286 283 281 275 271 274 279 280 278 277 276 272 270 265 255 248 242 239 238 234 232 229 232 237 239 236 240 245 247 251 256
258 258 262 266 272 280 283 280 280 284 287 290 294 297 294 293 293 291 284 280 286 292 295 298 303 309 313 317 316 313 312 312 306 302 302 298 294 294 292 291 290 288 288 284 280 277 270 266 267 270 276 277 275 274 272 269 267 259 249 244 240 238 236 235 232 232 239 243 239 238 246 253 254 254
256 257 263 270 277 283 284 283 284 286 289 293 296 296 294 294 295 294 288 280 284 292 296 297 304 313 316 314 313 310 308 309 307 302 300 297 293 293 292 291 290 289 288 284 281 278 274 270 268 268 272 276 275 273 271 268 266 263 254 246 242 239 236 234 234 234 239 246 243 239 243 254 257 253
256 257 265 274 281 284 282 282 285 287 291 295 296 296 295 296 297 296 292 285 284 291 298 301 306 314 315 311 310 310 307 306 305 300 297 296 294 292 293 294 294 293 289 286 284 282 281 277 272 273 275 276 274 270 270 269 265 263 255 243 237 236 232 228 229 230 235 243 246 241 242 251 255 253
257 258 266 278 284 283 281 282 284 288 293 297 296 295 295 296 299 300 297 292 286 287 295 302 305 309 311 308 308 308 306 307 306 302 300 300 299 299 299 299 299 297 292 287 285 283 283 281 275 273 275 276 275 271 269 269 264 260 253 242 235 232 229 225 224 225 229 235 242 243 242 247 253 253
257 258 268 281 286 282 281 284 286 290 295 296 295 294 295 297 299 302 302 296 288 288 294 300 303 305 306 305 307 308 308 310 309 306 304 304 303 301 299 296 294 293 290 286 285 284 283 281 274 270 271 272 272 271 269 267 261 255 250 242 235 232 228 225 224 224 226 231 235 240 241 243 248 250
254 258 272 284 286 282 284 286 288 292 295 296 295 293 295 300 302 304 304 298 291 289 293 298 301 303 302 302 307 311 312 312 310 307 305 304 303 303 302 301 300 299 296 290 286 285 283 279 272 267 267 267 267 266 266 266 260 252 248 242 235 231 226 223 223 223 225 228 231 236 240 242 244 247
253 261 276 284 284 283 286 288 289 294 296 295 295 295 298 303 304 304 303 296 292 291 294 297 299 301 303 304 309 314 314 310 307 306 306 306 305 305 304 302 298 293 288 283 280 282 283 281 275 267 260 258 257 255 256 262 261 253 248 243 237 231 226 222 221 222 224 226 227 231 237 241 243 245
254 267 279 282 283 285 285 287 289 293 297 296 295 298 301 303 303 301 297 292 295 298 299 298 297 301 306 308 310 313 312 308 305 304 305 305 303 302 298 294 291 289 287 285 284 284 285 284 280 271 262 255 250 247 246 249 252 250 246 242 237 231 226 222 220 220 221 224 226 230 235 239 242 244
259 272 280 283 285 285 283 285 289 293 297 297 295 296 298 300 299 297 295 297 302 301 298 298 300 303 307 309 310 312 312 309 307 305 303 302 300 298 296 295 295 296 295 293 291 291 290 287 281 272 264 258 252 250 247 245 244 244 241 238 235 230 225 221 220 219 218 221 225 228 234 237 240 242
264 274 280 284 286 284 282 284 287 291 292 290 291 294 296 298 298 296 297 301 301 300 298 300 303 304 306 309 311 312 312 310 307 306 303 299 298 298 296 295 295 295 294 295 295 295 294 291 286 275 263 256 252 250 249 246 244 243 241 238 234 229 223 219 219 219 218 220 224 226 230 234 237 241
265 272 276 282 285 283 283 284 287 290 290 288 289 292 295 297 298 298 299 300 299 300 301 301 303 303 305 310 312 311 312 310 306 306 303 299 300 301 299 297 298 297 296 297 297 294 293 291 287 279 266 255 249 246 245 244 244 243 241 239 235 230 223 218 218 220 218 219 222 224 226 228 233 237
262 269 275 281 284 283 283 285 289 292 293 291 290 292 295 297 296 296 298 300 300 301 300 302 304 303 305 311 314 312 311 310 308 307 305 302 302 302 299 297 298 299 298 296 293 290 289 288 284 277 266 256 248 243 240 240 241 240 237 237 234 230 224 218 216 218 218 217 218 221 222 222 225 233
262 268 274 280 283 283 284 287 292 294 294 294 294 295 296 297 298 299 300 301 303 303 303 303 305 306 308 312 313 312 312 311 311 310 307 304 302 298 295 292 290 294 297 293 290 289 288 287 283 275 264 254 248 242 238 237 237 234 233 234 233 228 223 218 214 215 216 215 216 217 218 217 218 226
262 267 275 281 282 283 284 288 292 294 295 296 295 296 297 301 307 307 304 305 305 305 305 305 307 309 310 310 308 310 312 312 311 310 307 305 301 297 293 287 285 290 292 286 283 285 285 285 283 274 262 253 249 242 237 232 229 229 228 230 230 225 222 217 213 212 213 214 215 214 215 214 213 217
261 267 275 282 283 283 286 290 293 295 296 297 300 304 305 309 312 309 306 307 306 305 308 309 309 308 306 305 306 310 313 311 307 305 303 302 299 294 291 287 284 285 283 277 276 279 280 280 280 272 260 252 248 243 237 228 219 223 226 224 224 222 219 216 211 209 210 212 213 212 212 211 209 210
260 269 277 283 285 285 288 292 295 297 299 304 310 309 305 307 310 308 309 312 310 309 310 307 304 304 305 305 305 308 309 304 299 297 296 294 292 289 287 286 284 283 281 274 266 270 276 279 277 272 262 253 249 241 237 228 214 214 223 221 218 218 216 214 210 207 207 210 212 212 211 209 207 207
265 274 283 287 287 287 291 295 298 299 302 309 308 302 301 308 311 310 313 317 315 314 312 306 304 305 306 304 303 305 304 300 299 298 294 290 288 288 289 288 288 289 289 280 262 263 274 279 277 273 266 257 251 241 235 226 208 205 220 219 211 212 213 212 208 205 206 210 211 211 210 209 207 207
275 282 288 289 288 289 293 298 300 300 305 308 302 299 306 314 314 313 317 319 319 320 316 311 309 308 306 304 306 311 311 307 305 301 295 292 292 291 291 291 292 293 294 289 270 260 269 275 273 275 274 263 254 243 232 220 204 199 214 215 205 204 208 208 206 204 205 208 210 209 209 208 206 206
282 289 293 290 289 291 297 302 302 304 309 306 301 304 311 315 316 319 322 323 327 327 322 316 312 308 308 310 315 322 326 322 313 305 301 301 301 295 290 291 295 299 304 306 277 256 263 274 274 278 283 272 252 238 225 215 204 197 202 207 200 196 201 203 202 202 204 207 209 209 208 206 205 205
286 294 294 289 289 293 300 303 302 306 311 305 302 306 311 316 321 322 322 326 329 327 323 319 315 311 312 316 323 332 338 336 327 319 313 310 307 298 291 291 295 297 307 7 337 267 269 283 285 284 285 277 256 234 221 212 203 195 193 197 197 193 195 199 199 200 204 208 211 211 208 205 204 203
289 294 291 288 291 294 299 302 301 307 309 302 301 306 315 323 323 317 317 323 322 317 317 318 316 316 319 325 334 344 350 350 341 334 327 317 310 301 294 290 287 286 288 331 330 294 286 285 282 277 274 271 259 237 223 208 195 188 187 192 196 192 190 195 199 201 205 209 213 214 209 205 204 204
288 290 288 290 296 298 300 302 301 303 302 297 303 313 319 319 312 309 315 319 315 313 315 317 317 319 323 331 342 351 358 0 352 343 339 327 311 299 294 289 281 282 290 308 312 300 292 279 270 263 259 256 248 241 225 201 189 186 186 190 193 189 188 191 196 201 206 210 213 213 208 204 204 206
285 288 292 296 300 299 300 301 301 301 303 307 314 316 313 310 309 311 315 315 314 317 319 320 322 324 327 335 345 354 2 8 5 356 351 341 320 301 294 290 282 284 294 314 309 294 284 272 261 252 245 242 248 249 227 198 192 193 194 194 189 185 187 189 193 198 203 206 209 208 204 203 205 207
286 290 294 297 298 297 298 302 306 309 315 320 321 317 315 316 317 316 315 316 321 327 327 328 332 334 336 342 349 356 4 13 18 15 8 358 339 313 295 286 280 283 296 311 303 284 272 260 249 240 234 237 251 248 216 199 200 196 190 190 188 187 191 193 196 200 201 204 206 203 201 202 205 207
283 285 289 292 292 294 302 311 315 323 327 327 324 323 323 324 323 322 324 331 337 339 340 344 348 349 349 352 357 2 7 15 22 24 21 16 0 328 311 294 280 288 312 322 306 281 266 256 241 233 238 242 246 231 200 197 205 195 183 183 185 190 196 201 205 207 206 206 205 201 199 201 203 205
270 272 280 285 287 296 313 322 326 335 339 334 333 333 333 333 336 340 347 353 356 358 360 2 4 4 2 4 5 7 12 17 21 26 29 31 32 24 2 26 37 28 17 355 326 291 269 259 243 237 240 234 224 206 186 185 194 194 190 189 192 199 206 211 214 214 210 208 205 200 198 199 201 202
257 258 268 276 286 301 321 337 347 357 356 349 348 347 345 349 357 5 12 15 16 18 19 18 18 16 13 13 13 14 18 21 23 26 30 33 41 52 57 61 63 56 50 47 40 32 218 231 234 217 195 196 198 193 181 174 173 177 187 196 201 206 210 210 211 210 206 203 202 200 199 200 201 203
238 237 252 264 274 295 343 13 18 18 10 1 359 360 2 10 17 20 23 27 27 27 28 29 29 28 24 22 22 22 24 26 27 29 31 32 37 43 47 54 65 68 69 74 80 91 102 108 109 105 117 153 179 185 183 177 171 169 177 190 197 201 200 196 196 198 197 197 198 199 200 201 203 205
219 222 237 242 228 141 52 36 28 23 18 13 14 19 25 30 33 32 32 33 33 32 32 33 34 34 33 31 31 30 30 31 30 32 34 35 35 39 44 47 53 61 72 83 89 91 92 93 93 101 120 142 155 163 171 169 160 160 168 177 184 189 188 188 190 191 191 193 197 200 202 204 206 207
208 215 217 204 177 130 85 61 40 25 25 35 39 42 44 43 41 40 38 37 36 34 33 33 34 34 35 35 35 36 36 37 36 34 36 36 36 38 43 45 47 49 54 62 74 84 89 90 88 92 110 126 130 138 149 145 139 148 159 163 169 170 168 180 189 191 190 192 195 199 203 206 209 210
202 208 200 183 163 142 127 117 109 88 66 63 56 49 48 45 42 41 39 37 37 35 34 34 33 33 34 35 35 36 36 38 40 40 40 39 37 38 40 43 44 45 47 50 58 70 82 90 93 94 100 109 115 120 126 124 123 136 149 157 167 169 164 173 185 193 197 197 195 199 204 208 211 213
199 199 188 175 163 151 142 135 128 118 90 68 54 46 43 41 40 40 39 38 37 34 34 35 34 34 34 34 35 36 36 36 38 41 43 44 43 42 42 43 43 43 43 46 51 59 69 82 94 97 96 100 104 102 105 112 117 125 138 149 162 170 172 174 180 189 200 203 200 201 206 210 212 213
196 194 185 175 166 156 146 137 128 112 87 66 52 44 41 38 37 38 39 38 36 34 33 34 34 35 35 35 35 35 35 35 36 38 40 43 44 45 45 46 46 45 43 43 46 53 61 69 79 84 83 86 87 77 72 82 96 107 124 135 146 165 176 180 183 187 194 201 205 208 210 214 218 218
193 191 184 176 170 160 148 140 131 110 83 65 52 44 41 39 38 39 40 39 37 35 34 34 34 34 34 35 35 35 35 35 35 36 38 40 41 43 45 46 47 48 47 45 45 50 55 60 66 70 70 72 71 62 57 66 79 90 105 116 126 146 162 174 185 190 193 198 205 211 215 219 224 227
193 190 185 179 173 164 153 146 137 113 83 64 51 45 43 40 39 41 42 41 39 36 35 34 34 34 34 34 34 34 35 35 35 35 37 38 39 40 41 43 45 47 47 48 48 50 52 55 57 60 61 61 59 54 53 58 64 71 81 91 105 126 143 158 174 184 193 199 203 208 214 219 224 229
193 190 188 183 176 168 160 151 141 123 95 73 56 50 48 44 41 41 41 40 39 37 35 34 33 33 34 34 34 34 34 34 35 35 36 37 38 39 39 40 43 44 45 45 46 47 48 49 50 52 55 57 56 54 53 53 53 58 69 80 93 112 127 138 150 168 189 201 205 209 212 216 221 225
192 190 190 186 179 173 166 155 147 140 114 89 68 59 55 49 44 42 41 40 38 36 34 34 33 32 32 33 34 34 34 34 34 35 35 36 37 38 39 39 41 42 43 44 44 44 44 45 46 48 52 56 61 65 66 64 63 65 73 83 92 100 106 115 127 147 174 194 205 209 211 214 219 222
194 191 191 188 182 178 172 161 156 152 133 109 84 67 59 52 46 44 42 41 39 37 34 32 32 32 32 32 32 32 32 33 33 33 34 35 35 36 38 39 40 41 43 43 44 44 45 45 46 49 53 58 63 70 69 64 62 66 75 83 87 88 90 96 104 114 133 169 192 201 206 212 218 220
195 192 193 190 185 182 177 169 163 158 145 127 102 76 61 53 49 46 43 41 40 38 35 33 31 30 30 31 31 31 31 31 32 31 31 32 33 34 35 37 39 41 42 43 44 45 46 48 49 51 54 54 55 59 58 53 49 56 70 84 93 94 91 89 93 100 113 144 171 181 188 197 205 211
197 194 194 192 189 186 182 174 168 164 159 146 120 91 68 55 51 50 47 43 41 40 38 35 32 30 29 29 30 30 30 30 29 29 30 30 31 32 33 34 37 39 41 43 45 45 46 47 48 48 51 52 52 53 54 50 46 49 59 73 92 102 98 94 92 92 95 116 155 170 178 187 196 204
199 196 194 194 193 190 185 179 174 171 171 167 147 113 81 63 54 52 49 44 40 40 39 36 33 31 29 28 28 28 29 29 28 27 27 28 29 30 31 32 33 35 36 39 41 42 43 44 45 47 48 50 51 51 51 49 46 44 47 56 72 91 100 100 100 98 96 99 120 157 178 189 198 207
201 198 195 196 196 193 189 184 179 177 180 179 169 147 107 71 54 49 47 42 39 39 38 36 34 31 29 28 26 25 26 27 26 25 26 26 26 28 29 30 31 32 32 32 34 37 39 41 43 45 47 49 51 52 51 50 47 42 41 45 54 65 75 80 85 92 94 93 97 119 163 189 201 213
Height
1377 1377 1378 1378 1379 1379 1379 1378 1377 1376 1375 1375 1373 1371 1371 1368 1363 1354 1342 1333 1334 1334 1332 1330 1326 1325 1325 1322 1318 1317 1313 1311 1310 1307 1304 1302 1300 1298 1297 1296 1295 1294 1293 1292 1291 1290 1290 1290 1290 1291 1291 1290 1290 1290 1290 1291 1293 1294 1295 1296 1298 1300 1302 1303 1306 1308 1309 1311 1312 1314 1317 1319 1317 1316
1374 1374 1375 1375 1375 1376 1376 1375 1374 1373 1372 1371 1370 1369 1368 1366 1363 1360 1350 1334 1329 1331 1328 1327 1325 1321 1320 1319 1315 1312 1310 1307 1306 1304 1301 1299 1297 1295 1294 1293 1292 1291 1289 1288 1287 1286 1285 1285 1286 1286 1286 1287 1287 1287 1287 1287 1289 1290 1291 1293 1295 1297 1299 1301 1303 1305 1307 1309 1311 1312 1314 1317 1318 1317
1371 1371 1372 1372 1372 1372 1372 1371 1370 1370 1369 1368 1367 1365 1364 1363 1359 1358 1355 1339 1327 1329 1327 1322 1323 1320 1316 1315 1311 1308 1306 1304 1302 1300 1297 1295 1294 1292 1290 1289 1288 1286 1285 1283 1282 1281 1281 1280 1281 1281 1282 1282 1283 1283 1283 1284 1285 1286 1288 1290 1292 1294 1296 1299 1300 1303 1304 1306 1309 1310 1311 1313 1315 1317
1368 1368 1369 1368 1369 1369 1368 1367 1367 1366 1366 1364 1364 1362 1359 1359 1356 1353 1353 1341 1326 1326 1328 1320 1318 1318 1313 1311 1308 1304 1301 1300 1298 1296 1294 1292 1290 1288 1286 1284 1283 1281 1280 1278 1277 1277 1276 1276 1276 1276 1277 1278 1279 1279 1279 1280 1281 1283 1284 1286 1288 1291 1293 1295 1298 1300 1302 1303 1305 1307 1308 1308 1310 1313
1366 1366 1366 1365 1365 1365 1364 1364 1363 1363 1363 1361 1359 1359 1355 1354 1353 1349 1347 1341 1327 1321 1324 1321 1315 1314 1311 1307 1304 1302 1298 1296 1294 1292 1290 1288 1286 1284 1281 1279 1278 1277 1275 1274 1273 1273 1272 1272 1272 1272 1273 1274 1275 1276 1276 1276 1277 1279 1281 1282 1284 1286 1289 1291 1294 1297 1299 1300 1301 1304 1306 1306 1306 1308
1363 1363 1363 1363 1362 1362 1361 1360 1360 1359 1359 1358 1355 1354 1352 1349 1348 1346 1342 1338 1329 1318 1317 1317 1313 1310 1309 1304 1301 1299 1295 1292 1290 1287 1285 1283 1281 1279 1277 1274 1273 1272 1271 1270 1270 1270 1269 1269 1269 1269 1269 1270 1271 1272 1272 1273 1274 1275 1276 1278 1279 1281 1284 1286 1288 1290 1293 1295 1297 1301 1304 1305 1304 1305
1360 1360 1360 1360 1359 1359 1358 1357 1357 1356 1355 1354 1352 1350 1348 1345 1343 1342 1339 1334 1329 1320 1313 1313 1310 1306 1305 1302 1298 1296 1293 1289 1286 1282 1279 1277 1275 1274 1272 1270 1269 1268 1268 1267 1266 1266 1266 1265 1265 1265 1265 1266 1267 1268 1268 1269 1270 1271 1272 1273 1275 1276 1279 1281 1283 1285 1287 1289 1293 1297 1301 1304 1303 1303
1357 1357 1357 1356 1356 1355 1355 1353 1353 1353 1352 1350 1348 1346 1344 1342 1339 1337 1335 1331 1328 1321 1312 1309 1308 1305 1302 1299 1296 1292 1288 1285 1281 1278 1275 1273 1271 1270 1268 1267 1265 1264 1264 1263 1263 1262 1262 1261 1260 1260 1261 1261 1262 1263 1264 1265 1266 1267 1268 1269 1271 1273 1275 1277 1279 1281 1283 1285 1288 1293 1297 1300 1301 1302
1354 1354 1353 1353 1353 1352 1351 1351 1350 1350 1348 1346 1344 1342 1340 1338 1336 1333 1331 1329 1326 1321 1313 1307 1305 1303 1299 1296 1292 1289 1284 1280 1277 1274 1272 1270 1268 1265 1264 1263 1262 1261 1260 1260 1259 1258 1257 1256 1256 1256 1256 1257 1257 1258 1259 1260 1261 1262 1264 1265 1267 1269 1271 1273 1275 1277 1280 1282 1285 1289 1291 1295 1297 1299
1351 1351 1350 1350 1350 1349 1348 1348 1347 1346 1344 1342 1340 1338 1336 1334 1332 1329 1328 1326 1323 1320 1314 1307 1302 1300 1296 1292 1287 1285 1283 1278 1274 1271 1268 1266 1265 1263 1261 1260 1259 1259 1257 1256 1255 1254 1252 1252 1251 1251 1251 1252 1252 1253 1254 1256 1257 1258 1259 1261 1263 1265 1268 1270 1272 1274 1277 1280 1282 1285 1288 1291 1294 1297
1348 1348 1348 1347 1346 1346 1345 1344 1344 1342 1340 1338 1336 1334 1332 1330 1328 1326 1324 1323 1320 1316 1311 1306 1301 1296 1292 1288 1284 1281 1280 1277 1273 1270 1266 1262 1262 1261 1259 1257 1255 1254 1253 1251 1250 1249 1248 1247 1247 1246 1246 1247 1247 1248 1248 1250 1251 1253 1255 1257 1259 1261 1264 1266 1269 1271 1274 1276 1279 1282 1285 1288 1292 1295
1345 1345 1345 1344 1343 1343 1342 1341 1340 1339 1337 1335 1333 1331 1329 1327 1325 1324 1321 1319 1317 1313 1309 1304 1299 1293 1288 1285 1282 1279 1277 1274 1271 1269 1266 1261 1258 1257 1255 1253 1251 1249 1247 1245 1244 1243 1243 1242 1241 1241 1241 1242 1243 1243 1244 1245 1246 1248 1250 1252 1254 1257 1260 1263 1266 1268 1271 1273 1276 1279 1282 1285 1289 1292
1342 1342 1342 1341 1340 1340 1339 1338 1337 1336 1334 1332 1330 1327 1326 1324 1322 1321 1319 1316 1314 1310 1305 1300 1295 1290 1285 1282 1279 1275 1273 1271 1268 1266 1264 1260 1256 1253 1250 1248 1248 1247 1244 1241 1239 1238 1238 1237 1236 1236 1236 1236 1238 1239 1240 1241 1242 1244 1246 1248 1250 1253 1255 1259 1262 1265 1268 1270 1273 1275 1278 1281 1284 1287
1339 1339 1339 1338 1337 1337 1336 1335 1334 1332 1331 1330 1327 1325 1323 1321 1320 1318 1316 1314 1310 1306 1302 1297 1293 1287 1282 1279 1277 1273 1270 1269 1266 1263 1261 1257 1253 1251 1246 1242 1242 1243 1241 1238 1235 1233 1234 1234 1232 1231 1231 1232 1233 1235 1235 1236 1238 1240 1242 1244 1247 1249 1252 1255 1258 1262 1265 1267 1270 1272 1275 1278 1280 1283
1336 1336 1336 1335 1334 1333 1332 1331 1330 1329 1327 1326 1324 1322 1320 1319 1318 1316 1313 1310 1306 1303 1299 1294 1290 1285 1279 1275 1274 1271 1267 1265 1262 1260 1257 1254 1250 1248 1244 1238 1237 1239 1239 1237 1232 1228 1229 1230 1227 1225 1226 1227 1228 1230 1231 1232 1234 1236 1238 1240 1243 1246 1248 1251 1255 1258 1261 1264 1267 1269 1272 1275 1278 1280
1333 1333 1333 1332 1330 1330 1329 1327 1326 1325 1323 1322 1320 1318 1317 1315 1314 1313 1311 1307 1303 1299 1295 1290 1286 1282 1277 1272 1269 1268 1265 1261 1257 1255 1253 1250 1247 1244 1242 1237 1233 1234 1236 1234 1228 1223 1223 1224 1222 1220 1220 1222 1223 1225 1227 1228 1230 1232 1235 1236 1239 1242 1245 1248 1251 1255 1258 1261 1264 1267 1270 1273 1275 1278
1331 1330 1329 1328 1327 1326 1326 1324 1323 1321 1319 1318 1316 1315 1313 1311 1310 1309 1307 1305 1301 1297 1292 1287 1283 1280 1276 1271 1266 1265 1263 1258 1254 1250 1248 1246 1243 1240 1237 1234 1230 1230 1232 1230 1226 1219 1217 1220 1218 1214 1215 1218 1219 1220 1222 1224 1226 1228 1231 1233 1235 1238 1241 1244 1248 1252 1255 1259 1261 1264 1268 1270 1273 1275
1327 1327 1326 1325 1324 1323 1322 1321 1320 1318 1316 1314 1312 1311 1309 1307 1306 1305 1303 1301 1297 1294 1290 1285 1280 1277 1274 1269 1263 1262 1261 1256 1252 1248 1244 1242 1239 1235 1232 1229 1227 1226 1227 1227 1224 1215 1211 1216 1215 1209 1210 1214 1214 1215 1217 1219 1222 1224 1227 1230 1232 1234 1238 1241 1246 1250 1253 1256 1259 1262 1265 1268 1270 1273
1324 1324 1323 1322 1321 1320 1319 1318 1317 1315 1313 1311 1309 1308 1306 1304 1303 1301 1299 1296 1293 1290 1287 1283 1278 1274 1271 1267 1262 1260 1258 1254 1249 1245 1241 1238 1235 1231 1227 1224 1222 1221 1221 1223 1221 1211 1207 1212 1211 1205 1206 1209 1209 1210 1213 1215 1217 1220 1223 1226 1228 1230 1234 1238 1242 1248 1252 1255 1258 1260 1263 1266 1268 1271
1322 1321 1320 1319 1318 1317 1316 1315 1314 1313 1311 1310 1308 1305 1303 1301 1299 1297 1295 1293 1290 1287 1284 1280 1276 1271 1268 1265 1261 1257 1254 1249 1245 1241 1237 1234 1231 1227 1222 1218 1216 1216 1215 1217 1217 1210 1205 1207 1206 1202 1203 1205 1204 1205 1208 1211 1214 1216 1219 1223 1225 1227 1230 1234 1239 1244 1249 1253 1256 1258 1261 1263 1266 1269
1319 1318 1317 1316 1315 1314 1313 1312 1312 1311 1309 1308 1306 1303 1300 1297 1295 1293 1290 1289 1287 1284 1281 1277 1273 1269 1266 1263 1259 1254 1250 1245 1241 1237 1232 1229 1227 1224 1219 1215 1212 1211 1210 1210 1212 1208 1203 1203 1204 1201 1201 1201 1201 1201 1204 1207 1210 1212 1215 1219 1222 1224 1227 1231 1235 1241 1245 1249 1253 1255 1258 1261 1264 1268
1316 1315 1315 1314 1312 1311 1311 1310 1309 1309 1308 1306 1304 1300 1298 1295 1292 1289 1286 1284 1282 1279 1277 1274 1271 1267 1263 1259 1255 1250 1245 1241 1238 1234 1229 1226 1224 1221 1218 1214 1210 1207 1205 1204 1205 1204 1201 1201 1202 1201 1199 1197 1196 1197 1200 1204 1207 1209 1212 1216 1219 1222 1225 1228 1232 1237 1242 1246 1249 1252 1255 1258 1262 1266
1314 1313 1312 1312 1310 1309 1309 1308 1307 1307 1306 1305 1301 1299 1296 1293 1289 1286 1283 1280 1277 1274 1272 1270 1267 1265 1261 1256 1252 1247 1242 1238 1235 1231 1227 1224 1221 1218 1215 1214 1211 1207 1204 1203 1203 1202 1200 1200 1201 1200 1199 1196 1194 1195 1198 1201 1204 1207 1209 1212 1216 1219 1222 1226 1230 1234 1238 1242 1246 1249 1252 1255 1259 1263
1311 1311 1310 1309 1308 1307 1307 1306 1305 1305 1304 1302 1299 1297 1294 1291 1288 1284 1281 1279 1276 1272 1269 1267 1263 1261 1257 1253 1249 1244 1239 1235 1231 1228 1225 1222 1219 1216 1213 1212 1210 1206 1203 1203 1203 1201 1200 1199 1199 1199 1199 1197 1195 1196 1198 1199 1202 1205 1208 1210 1213 1217 1220 1224 1228 1232 1236 1240 1244 1247 1250 1253 1256 1259
1309 1308 1308 1307 1306 1306 1305 1304 1303 1303 1302 1300 1297 1295 1293 1290 1287 1283 1279 1277 1275 1271 1268 1265 1261 1258 1254 1250 1246 1242 1237 1233 1229 1225 1222 1219 1216 1214 1211 1209 1207 1203 1201 1202 1202 1201 1198 1197 1197 1197 1197 1197 1195 1195 1197 1199 1201 1204 1206 1209 1212 1215 1219 1223 1226 1230 1234 1238 1241 1244 1247 1251 1254 1256
1307 1306 1305 1305 1304 1304 1303 1303 1302 1300 1299 1297 1295 1293 1291 1289 1286 1282 1278 1275 1273 1270 1266 1263 1259 1256 1252 1248 1244 1241 1236 1232 1227 1223 1219 1216 1214 1211 1208 1206 1203 1200 1198 1199 1199 1198 1196 1194 1194 1194 1194 1195 1194 1194 1197 1199 1200 1203 1206 1208 1211 1215 1218 1221 1225 1228 1232 1235 1238 1241 1244 1247 1251 1253
1304 1304 1303 1303 1303 1302 1302 1301 1300 1298 1297 1295 1293 1291 1289 1286 1283 1280 1277 1275 1272 1268 1265 1261 1258 1254 1250 1246 1242 1239 1235 1231 1226 1221 1217 1214 1211 1208 1205 1203 1201 1198 1196 1195 1195 1194 1192 1190 1190 1191 1192 1192 1193 1193 1195 1197 1199 1201 1204 1207 1211 1214 1217 1220 1223 1226 1229 1232 1235 1238 1241 1244 1247 1251
1302 1302 1301 1301 1301 1301 1300 1299 1298 1297 1295 1293 1291 1289 1287 1285 1282 1279 1277 1274 1271 1267 1264 1260 1257 1253 1249 1245 1241 1238 1234 1229 1225 1220 1217 1213 1209 1206 1203 1201 1200 1197 1195 1193 1192 1190 1189 1187 1188 1189 1190 1190 1190 1192 1194 1196 1197 1199 1202 1205 1209 1213 1216 1219 1222 1224 1227 1230 1232 1235 1238 1241 1244 1248
1300 1300 1300 1300 1300 1299 1299 1297 1296 1295 1294 1292 1290 1289 1286 1284 1282 1279 1277 1274 1270 1267 1263 1259 1256 1253 1249 1245 1242 1238 1234 1229 1225 1221 1217 1213 1209 1205 1203 1201 1199 1197 1194 1192 1190 1188 1186 1186 1186 1188 1188 1187 1188 1191 1193 1195 1197 1199 1201 1204 1207 1211 1214 1217 1219 1222 1225 1227 1230 1233 1235 1237 1240 1243
1298 1298 1298 1299 1299 1298 1297 1296 1295 1294 1293 1291 1290 1288 1286 1284 1282 1279 1277 1274 1270 1267 1263 1260 1256 1253 1250 1246 1243 1239 1234 1230 1226 1222 1218 1213 1209 1205 1203 1201 1199 1196 1194 1191 1189 1187 1186 1186 1186 1186 1186 1186 1188 1190 1193 1195 1197 1200 1202 1204 1206 1209 1211 1214 1217 1220 1222 1225 1228 1231 1234 1236 1239 1242
1296 1297 1297 1297 1297 1296 1296 1295 1294 1293 1292 1291 1290 1288 1286 1284 1282 1279 1277 1274 1271 1268 1265 1261 1258 1255 1251 1247 1243 1239 1235 1231 1228 1223 1219 1215 1211 1207 1203 1200 1198 1196 1194 1191 1189 1187 1186 1185 1185 1185 1185 1185 1187 1190 1193 1195 1197 1200 1202 1203 1205 1207 1209 1212 1215 1218 1221 1224 1227 1230 1233 1236 1238 1241
1295 1295 1296 1296 1296 1295 1294 1293 1293 1292 1292 1291 1290 1288 1287 1285 1282 1280 1278 1275 1272 1269 1266 1263 1260 1256 1253 1249 1244 1240 1236 1233 1229 1225 1221 1217 1214 1209 1205 1201 1198 1196 1194 1192 1190 1187 1186 1185 1185 1185 1185 1185 1187 1190 1192 1194 1196 1198 1201 1203 1204 1207 1209 1211 1214 1217 1220 1223 1226 1228 1231 1234 1237 1239
1293 1294 1294 1295 1294 1294 1293 1293 1293 1292 1292 1291 1290 1289 1287 1285 1283 1281 1279 1276 1273 1271 1268 1264 1261 1257 1254 1250 1246 1242 1238 1234 1231 1227 1223 1219 1216 1212 1207 1203 1200 1198 1196 1194 1191 1189 1187 1186 1186 1187 1187 1187 1188 1189 1191 1193 1195 1198 1200 1202 1204 1206 1208 1210 1213 1216 1218 1221 1224 1226 1229 1232 1234 1237
1292 1293 1293 1293 1293 1293 1293 1293 1293 1293 1292 1291 1290 1289 1287 1285 1283 1281 1279 1276 1274 1272 1269 1266 1262 1259 1256 1252 1248 1244 1241 1237 1233 1230 1226 1222 1218 1214 1210 1205 1202 1201 1199 1197 1194 1192 1189 1188 1187 1188 1188 1189 1190 1190 1191 1194 1196 1198 1200 1201 1203 1205 1207 1209 1211 1214 1216 1219 1221 1224 1227 1229 1232 1235
1290 1291 1292 1292 1292 1292 1292 1293 1293 1293 1292 1291 1290 1288 1287 1285 1284 1282 1279 1277 1275 1273 1270 1267 1264 1261 1258 1254 1250 1247 1243 1240 1236 1232 1229 1226 1222 1218 1214 1209 1206 1204 1202 1199 1197 1195 1193 1192 1190 1190 1190 1190 1190 1191 1193 1196 1197 1199 1201 1202 1203 1205 1206 1208 1211 1213 1216 1218 1220 1222 1224 1227 1229 1232
1289 1290 1291 1291 1291 1291 1292 1292 1292 1292 1291 1291 1290 1288 1287 1286 1284 1282 1280 1278 1276 1274 1271 1269 1266 1263 1260 1257 1253 1250 1246 1243 1239 1235 1231 1228 1225 1222 1219 1215 1211 1208 1206 1203 1201 1199 1197 1195 1194 1193 1193 1193 1193 1194 1197 1199 1199 1200 1201 1202 1204 1205 1206 1208 1210 1212 1214 1217 1219 1221 1223 1225 1227 1229
1287 1288 1289 1290 1290 1291 1291 1291 1292 1292 1291 1290 1290 1289 1287 1286 1284 1282 1281 1279 1277 1275 1272 1270 1267 1265 1262 1259 1256 1253 1249 1246 1242 1239 1235 1231 1228 1225 1222 1219 1216 1213 1211 1209 1207 1204 1201 1200 1199 1198 1197 1197 1198 1200 1202 1202 1201 1201 1202 1203 1204 1205 1207 1208 1210 1211 1213 1216 1218 1220 1222 1224 1226 1228
1286 1287 1288 1289 1289 1290 1290 1290 1291 1291 1291 1290 1289 1288 1287 1286 1285 1283 1282 1280 1278 1276 1274 1271 1269 1267 1264 1261 1258 1255 1252 1249 1246 1242 1239 1235 1231 1228 1225 1223 1220 1218 1216 1215 1212 1209 1207 1205 1203 1203 1202 1202 1203 1204 1205 1204 1203 1203 1203 1204 1205 1206 1207 1208 1210 1211 1212 1214 1216 1218 1220 1222 1225 1227
1284 1286 1287 1288 1288 1289 1289 1289 1290 1290 1290 1289 1289 1288 1287 1286 1285 1284 1282 1280 1279 1277 1275 1273 1270 1268 1266 1263 1260 1258 1255 1252 1249 1246 1242 1239 1236 1232 1230 1227 1224 1221 1219 1217 1215 1212 1210 1208 1207 1207 1207 1207 1208 1208 1208 1207 1207 1206 1206 1206 1206 1206 1207 1208 1209 1211 1212 1213 1214 1216 1218 1220 1223 1225
1283 1284 1286 1287 1287 1288 1288 1289 1289 1290 1290 1289 1289 1288 1287 1287 1286 1284 1283 1281 1279 1277 1276 1274 1272 1270 1267 1265 1263 1260 1257 1255 1252 1249 1247 1244 1240 1237 1234 1231 1228 1224 1222 1219 1216 1214 1212 1211 1212 1212 1212 1212 1212 1212 1211 1210 1210 1210 1209 1208 1208 1208 1208 1208 1209 1210 1211 1212 1213 1215 1217 1219 1221 1223
1281 1283 1284 1285 1286 1287 1287 1288 1288 1289 1289 1289 1288 1288 1287 1286 1285 1284 1283 1282 1280 1278 1276 1275 1273 1271 1269 1267 1264 1262 1260 1257 1255 1253 1250 1247 1245 1242 1239 1236 1232 1228 1225 1222 1220 1218 1217 1217 1218 1218 1217 1216 1215 1214 1212 1211 1212 1212 1211 1210 1210 1210 1210 1210 1210 1210 1210 1211 1212 1213 1215 1217 1219 1221
1280 1282 1283 1284 1285 1286 1287 1287 1287 1288 1288 1288 1288 1288 1287 1286 1285 1284 1283 1282 1281 1279 1278 1276 1274 1272 1270 1268 1266 1264 1262 1259 1257 1255 1253 1250 1248 1245 1242 1239 1236 1233 1230 1228 1226 1225 1225 1224 1223 1221 1219 1218 1216 1214 1213 1213 1214 1214 1213 1213 1213 1212 1212 1211 1211 1210 1211 1211 1212 1212 1214 1215 1217 1219
1279 1280 1282 1283 1284 1285 1286 1286 1287 1287 1288 1288 1287 1287 1287 1286 1286 1285 1284 1283 1282 1280 1279 1277 1275 1273 1271 1269 1268 1266 1264 1261 1259 1257 1255 1253 1250 1248 1245 1243 1241 1238 1236 1234 1233 1231 1229 1227 1225 1223 1221 1219 1217 1216 1216 1216 1216 1215 1214 1215 1215 1214 1214 1213 1212 1212 1211 1212 1212 1212 1213 1214 1215 1216
1277 1279 1280 1282 1283 1284 1285 1285 1286 1286 1287 1287 1287 1287 1286 1286 1286 1285 1284 1283 1282 1281 1280 1278 1277 1275 1273 1271 1269 1267 1265 1263 1261 1260 1258 1255 1253 1251 1249 1247 1244 1242 1240 1238 1236 1234 1232 1229 1227 1224 1222 1220 1220 1219 1219 1218 1218 1217 1216 1216 1216 1215 1215 1214 1214 1213 1213 1212 1212 1213 1213 1214 1215 1216
1276 1277 1279 1280 1282 1283 1284 1284 1285 1285 1286 1286 1286 1286 1286 1286 1286 1285 1284 1284 1283 1281 1280 1279 1278 1276 1274 1273 1271 1269 1267 1265 1264 1262 1260 1258 1256 1254 1252 1250 1247 1245 1242 1240 1238 1236 1234 1232 1230 1227 1225 1224 1223 1222 1221 1220 1220 1219 1218 1217 1216 1215 1215 1215 1215 1214 1214 1214 1214 1214 1214 1214 1215 1215